Location: Unspecified
(0.0000°N, 0.0000°E)
Time: 20:27:22
(UTC+00:00)

Tiangong 2 - Visible Passes

Search period start: 18 December 2017 00:00
Search period end: 28 December 2017 00:00
Orbit: 387 x 389 km, 42.8° (Epoch: 18 December)

Date Brightness Start Highest point End Pass type
(mag) Time Alt. Az. Time Alt. Az. Time Alt. Az.
18 Dec 1.1 04:51:23 30° NW 04:52:46 78° NE 04:55:57 10° SE visible
19 Dec 4.0 03:56:06 17° E 03:56:06 17° E 03:57:07 10° ESE visible
19 Dec 3.5 05:29:37 10° WSW 05:31:04 12° SW 05:32:31 10° SSW visible
20 Dec 2.4 04:33:04 29° SSW 04:33:04 29° SSW 04:35:31 10° SSE visible
